CAPE
14 3 0 4 0 0 0 1 1 3 5 1 1 0 2 0 0 0 0 0 0 0 0 0 0 0 0 0 0 0 0 0 0 0 0 2 0 0 0 1 0 0 0 0
7 2 2 4 12 8 8 3 8 9 5 1 6 1 0 0 0 0 0 0 0 0 0 0 0 0 0 0 0 0 0 0 0 0 0 0 0 0 0 0 0 0 0 0
2 0 1 0 0 0 1 2 13 6 16 7 3 0 0 0 0 0 0 0 0 0 0 0 0 0 0 0 0 0 0 0 0 0 0 0 0 0 0 0 0 0 0 0
19 19 0 6 7 3 2 1 4 7 11 0 8 0 0 0 0 0 0 0 0 0 0 0 0 0 0 0 0 0 0 0 0 0 0 0 0 0 0 0 0 0 0 0
1 0 22 4 0 0 2 5 25 10 9 1 1 2 0 0 0 0 0 0 0 0 0 0 0 0 0 0 0 0 0 0 0 0 0 0 0 0 0 0 0 0 0 0
3 3 9 0 9 7 17 20 22 13 2 0 1 0 0 0 0 0 0 0 0 0 0 0 0 0 0 0 0 0 0 0 0 0 0 0 0 0 0 0 0 0 0 1
3 5 15 15 12 28 23 33 6 0 0 0 0 6 0 0 0 0 0 0 0 0 0 0 0 0 0 0 0 0 0 0 0 0 0 0 0 0 0 0 0 0 0 0
2 3 5 16 19 8 3 6 1 0 2 5 0 0 0 0 0 0 0 0 0 0 0 0 0 0 0 0 0 0 0 0 0 0 0 0 0 0 0 0 0 0 0 0
3 1 0 0 1 11 17 4 0 2 0 0 0 0 0 0 0 0 0 0 0 0 0 0 0 0 0 0 0 0 0 0 0 0 0 0 0 0 0 0 0 0 0 0
1 2 0 0 11 7 8 20 3 1 0 0 0 0 0 0 0 0 0 0 0 0 0 0 0 0 0 0 0 0 0 0 0 0 0 0 0 0 0 0 0 0 0 0
10 8 16 11 4 2 4 10 16 17 1 1 0 0 0 0 0 0 0 0 0 0 0 0 0 0 0 0 0 0 0 0 0 0 0 0 0 0 0 0 0 0 0 0
11 20 5 0 7 13 8 0 8 3 0 2 8 0 0 0 0 0 0 0 0 0 0 0 0 0 0 0 0 0 0 0 0 0 0 0 0 0 0 0 0 1 1 1
12 8 4 3 1 0 11 11 21 9 0 0 3 0 0 0 0 0 0 0 0 0 0 0 0 0 0 0 0 0 0 0 0 0 0 0 0 0 1 1 2 2 1 3
2 3 0 0 0 0 0 16 18 7 13 0 0 0 0 0 0 0 0 0 0 0 0 0 0 0 0 0 0 0 0 0 0 0 0 0 0 0 2 2 1 0 2 1
5 4 0 4 0 4 16 0 6 3 0 5 0 0 0 0 0 0 0 0 0 0 0 0 0 0 0 0 0 0 0 0 0 0 0 0 1 0 1 0 0 1 1 1
13 4 2 0 1 3 1 0 12 5 0 6 0 1 0 0 0 0 0 0 0 0 0 0 0 0 0 0 0 0 0 0 0 0 0 0 0 0 0 1 2 2 2 1
22 2 1 0 0 0 3 0 0 0 0 0 1 0 0 0 0 0 0 0 0 0 0 0 0 0 0 0 0 0 0 0 0 0 0 0 0 0 0 0 0 0 0 0
2 2 2 3 0 0 0 0 0 0 0 0 0 0 0 0 0 0 0 0 0 0 0 0 0 0 0 0 0 0 0 0 0 0 0 0 0 0 0 0 0 0 0 0
0 1 0 0 0 0 0 0 0 0 0 0 0 0 0 0 0 0 0 0 0 0 0 0 0 0 0 0 0 0 0 0 0 0 0 0 0 0 0 0 0 0 0 0
0 0 2 0 0 0 0 0 0 0 0 0 0 0 0 0 0 0 0 0 0 0 0 0 0 0 0 0 0 0 0 0 0 0 0 0 0 0 0 0 0 0 0 0
0 0 1 0 0 0 0 0 0 0 0 0 0 0 0 0 0 0 0 0 0 0 0 0 0 0 0 0 0 0 0 0 0 0 0 0 0 0 0 0 0 0 0 0
0 0 0 0 0 0 0 0 0 0 0 0 0 0 0 0 0 0 0 0 0 0 0 0 0 0 0 0 0 0 0 0 0 0 0 0 0 0 0 0 0 0 0 0
0 0 0 0 0 0 0 0 0 0 0 0 0 0 0 0 0 0 0 0 0 0 0 0 0 0 0 0 0 0 0 0 0 0 0 0 0 0 0 0 0 0 0 0
0 0 0 0 0 0 0 0 0 0 0 0 0 0 0 0 0 0 0 0 0 0 0 0 0 0 0 0 0 0 0 0 0 0 0 0 0 0 0 0 0 0 0 0
0 0 0 0 0 0 0 0 0 0 0 0 0 0 0 0 0 0 0 0 0 0 0 0 0 0 0 0 0 0 0 0 0 0 0 0 0 0 0 0 0 0 0 0
0 0 0 0 0 0 0 0 0 0 0 0 0 0 0 0 0 0 0 0 0 0 2 0 0 0 0 0 0 0 0 0 1 1 0 0 0 0 0 0 0 3 1 0
CIN
-2 -0 -0 -0 -0 -1 -0 -2 -1 -2 -2 -1 -1 -0 -1 -0 -0 -0 -0 -0 -0 -0 -0 -0 -0 -0 -0 -0 -0 -0 -0 -0 -0 -0 -0 -0 -0 -0 -0 -0 -0 -0 -0 -0
-3 -0 -1 -1 -1 -0 -0 -0 -1 -2 -18 -0 -1 -1 -0 -0 -0 -0 -0 -0 -0 -0 -0 -0 -0 -0 -0 -0 -0 -0 -0 -0 -0 -0 -0 -0 -0 -0 -0 -0 -0 -0 -0 -0
-0 -0 -4 -3 -0 -0 -0 -0 -0 -1 -1 -7 -3 -0 -0 -0 -0 -0 -0 -0 -0 -0 -0 -0 -0 -0 -0 -0 -0 -0 -0 -0 -0 -0 -0 -0 -0 -0 -0 -0 -0 -0 -0 -0
-0 -1 -0 -3 -0 -4 -5 -1 -0 -0 -1 -0 -2 -0 -0 -0 -0 -0 -0 -0 -0 -0 -0 -0 -0 -0 -0 -0 -0 -0 -0 -0 -0 -0 -0 -0 -0 -0 -0 -0 -0 -0 -0 -0
-1 -3 -0 -1 -0 -0 -1 -1 -5 -11 -0 -13 -1 -1 -0 -0 -0 -0 -0 -0 -0 -0 -0 -0 -0 -0 -0 -0 -0 -0 -0 -0 -0 -0 -0 -0 -0 -0 -0 -0 -0 -0 -0 -0
-1 -15 -6 -0 -2 -8 -3 -0 -0 -13 -1 -0 -0 -1 -0 -0 -0 -0 -0 -0 -0 -0 -0 -0 -0 -0 -0 -0 -0 -0 -0 -0 -0 -0 -0 -0 -0 -0 -0 -0 -0 -0 -0 -0
-0 -2 -10 -8 -0 -5 -1 -1 -8 -7 -6 -0 -1 -1 -0 -0 -0 -0 -0 -0 -0 -0 -0 -0 -0 -0 -0 -0 -0 -0 -0 -0 -0 -0 -0 -0 -0 -0 -0 -0 -0 -0 -0 -0
-1 -0 -2 -5 -0 -1 -1 -0 -0 -0 -2 -2 -0 -0 -0 -0 -0 -0 -0 -0 -0 -0 -0 -0 -0 -0 -0 -0 -0 -0 -0 -0 -0 -0 -0 -0 -0 -0 -0 -0 -0 -0 -0 -0
-6 -3 -0 -0 -0 -1 -0 -16 -0 -0 -0 -0 -0 -0 -0 -0 -0 -0 -0 -0 -0 -0 -0 -0 -0 -0 -0 -0 -0 -0 -0 -0 -0 -0 -0 -0 -0 -0 -0 -0 -0 -0 -0 -0
-2 -1 -2 -0 -0 -2 -3 -4 -0 -0 -0 -0 -0 -0 -0 -0 -0 -0 -0 -0 -0 -0 -0 -0 -0 -0 -0 -0 -0 -0 -0 -0 -0 -0 -0 -0 -0 -0 -0 -0 -0 -0 -0 -0
-2 -1 -0 -1 -0 -0 -1 -0 -2 -3 -1 -0 -0 -0 -0 -0 -0 -0 -0 -0 -0 -0 -0 -0 -0 -0 -0 -0 -0 -0 -0 -0 -0 -0 -0 -0 -0 -0 -0 -0 -0 -0 -0 -0
-1 -3 -2 -0 -8 -3 -1 -0 -22 -1 -0 -2 -5 -0 -0 -0 -0 -0 -0 -0 -0 -0 -0 -0 -0 -0 -0 -0 -0 -0 -0 -0 -0 -0 -0 -0 -0 -0 -0 -0 -0 -0 -0 -0
-5 -3 -1 -1 -0 -0 -0 -0 -1 -4 -0 -0 -0 -0 -0 -0 -0 -0 -0 -0 -0 -0 -0 -0 -0 -0 -0 -0 -0 -0 -0 -0 -0 -0 -0 -0 -0 -0 -0 -0 -0 -0 -0 -0
-6 -4 -0 -0 -2 -0 -0 -0 -0 -0 -8 -0 -0 -0 -0 -0 -0 -0 -0 -0 -0 -0 -0 -0 -0 -0 -0 -0 -0 -0 -0 -0 -0 -0 -0 -0 -0 -0 -0 -0 -0 -0 -0 -0
-3 -1 -1 -0 -0 -6 -22 -0 -0 -5 -0 -2 -0 -0 -0 -0 -0 -0 -0 -0 -0 -0 -0 -0 -0 -0 -0 -0 -0 -0 -0 -0 -0 -0 -0 -0 -0 -0 -0 -0 -0 -0 -0 -0
-3 -11 -11 -0 -9 -14 -0 -4 -10 -36 -0 -0 -0 -0 -0 -0 -0 -0 -0 -0 -0 -0 -0 -0 -0 -0 -0 -0 -0 -0 -0 -0 -0 -0 -0 -0 -0 -0 -0 -0 -0 -0 -0 -0
-14 -6 -0 -0 -0 -1 -4 -0 -0 -0 -0 -0 -0 -0 -0 -0 -0 -0 -0 -0 -0 -0 -0 -0 -0 -0 -0 -0 -0 -0 -0 -0 -0 -0 -0 -0 -0 -0 -0 -0 -0 -0 -0 -0
-7 -5 -7 -1 -0 -0 -0 -0 -0 -0 -0 -0 -0 -0 -0 -0 -0 -0 -0 -0 -0 -0 -0 -0 -0 -0 -0 -0 -0 -0 -0 -0 -0 -0 -0 -0 -0 -0 -0 -0 -0 -0 -0 -0
-5 -9 -0 -0 -0 -0 -0 -0 -0 -0 -0 -0 -0 -0 -0 -0 -0 -0 -0 -0 -0 -0 -0 -0 -0 -0 -0 -0 -0 -0 -0 -0 -0 -0 -0 -0 -0 -0 -0 -0 -0 -0 -0 -0
-0 -0 -8 -0 -0 -0 -0 -0 -0 -0 -0 -0 -0 -0 -0 -0 -0 -0 -0 -0 -0 -0 -0 -0 -0 -0 -0 -0 -0 -0 -0 -0 -0 -0 -0 -0 -0 -0 -0 -0 -0 -0 -0 -0
-0 -3 -1 -0 -0 -0 -0 -0 -0 -0 -0 -0 -0 -0 -0 -0 -0 -0 -0 -0 -0 -0 -0 -0 -0 -0 -0 -0 -0 -0 -0 -0 -0 -0 -0 -0 -0 -0 -0 -0 -0 -0 -0 -0
-0 -0 -0 -0 -0 -0 -0 -0 -0 -0 -0 -0 -0 -0 -0 -0 -0 -0 -0 -0 -0 -0 -0 -0 -0 -0 -0 -0 -0 -0 -0 -0 -0 -0 -0 -0 -0 -0 -0 -0 -0 -0 -0 -0
-0 -0 -0 -0 -0 -0 -0 -0 -0 -0 -0 -0 -0 -0 -0 -0 -0 -0 -0 -0 -0 -0 -0 -0 -0 -0 -0 -0 -0 -0 -0 -0 -0 -0 -0 -0 -0 -0 -0 -0 -0 -0 -0 -0
-0 -0 -0 -0 -0 -0 -0 -0 -0 -0 -0 -0 -0 -0 -0 -0 -0 -0 -0 -0 -0 -0 -0 -0 -0 -0 -0 -0 -0 -0 -0 -0 -0 -0 -0 -0 -0 -0 -0 -0 -0 -0 -0 -0
-0 -0 -0 -0 -0 -0 -0 -0 -0 -0 -0 -0 -0 -0 -0 -0 -0 -0 -0 -0 -0 -0 -0 -0 -0 -0 -0 -0 -0 -0 -0 -0 -0 -0 -0 -0 -0 -0 -0 -0 -0 -0 -0 -0
-0 -0 -0 -0 -0 -0 -0 -0 -0 -0 -0 -0 -0 -0 -0 -0 -0 -0 -0 -0 -0 -0 -0 -0 -0 -0 -0 -0 -0 -0 -0 -0 -0 -0 -0 -0 -0 -0 -0 -0 -0 -0 -0 -0
Wind_Speed
24 32 39 31 34 35 36 36 39 37 33 38 43 48 43 44 45 46 45 47 46 44 39 37 35 31 28 29 26 24 23 22 23 22 23 23 22 21 21 18 17 15 12 11
28 41 32 30 32 32 34 39 40 36 34 38 43 52 46 42 49 45 49 49 50 47 41 34 34 35 33 29 28 26 24 24 23 25 24 25 24 24 23 22 19 17 15 14
34 32 26 27 31 37 39 41 39 41 36 36 43 61 50 41 41 45 44 51 51 49 46 39 36 35 36 36 33 29 27 26 26 26 27 27 27 25 23 22 22 21 20 19
34 31 28 35 38 33 42 34 38 40 40 47 33 61 50 45 44 38 38 43 47 46 43 42 39 36 33 37 35 37 32 30 29 29 28 28 29 29 25 24 24 23 21 20
33 31 36 37 35 29 40 31 34 37 40 42 43 47 54 33 40 37 37 40 47 47 45 42 40 36 32 35 38 37 36 35 32 29 29 30 31 29 28 26 25 24 23 22
35 26 30 39 31 30 26 31 32 31 33 45 40 37 62 41 40 38 39 39 42 41 40 38 40 38 36 33 37 39 38 36 31 29 29 33 34 30 30 28 28 26 25 23
34 38 27 25 33 30 31 30 35 37 40 46 29 30 45 35 35 34 36 36 39 39 40 39 38 38 37 31 33 39 41 40 35 32 30 29 30 31 29 28 28 27 26 25
36 39 36 29 30 29 30 31 38 43 42 39 29 41 39 32 28 27 35 36 38 40 40 41 41 41 38 29 30 38 40 41 38 36 33 32 32 32 31 29 27 28 29 27
34 38 26 29 28 26 28 33 31 37 35 39 37 39 43 41 39 31 29 31 31 34 35 37 38 37 37 35 27 31 37 40 41 40 39 37 34 33 33 30 29 29 28 27
27 35 28 24 24 30 34 21 32 32 39 46 44 44 43 33 35 33 27 22 28 31 30 30 31 34 35 36 34 29 34 37 38 41 39 38 36 36 34 33 33 30 28 27
29 32 28 23 31 29 29 36 33 33 36 42 48 45 33 30 28 26 20 26 35 31 31 31 32 32 33 34 30 28 37 37 39 38 34 34 34 33 33 34 33 30 29 28
30 30 40 38 30 31 28 30 28 33 35 35 39 49 24 24 29 32 33 32 31 34 39 38 37 37 37 36 32 29 33 37 40 39 35 33 32 31 32 33 31 28 27 28
24 32 36 35 32 27 34 32 30 32 28 36 37 42 23 24 27 28 33 36 40 43 44 42 41 38 37 38 37 34 33 38 41 39 37 34 31 30 31 29 27 27 27 27
19 31 36 39 29 21 27 28 26 29 37 42 42 49 40 41 43 44 44 46 44 45 44 44 44 44 40 39 35 33 35 38 38 39 38 36 34 29 29 30 30 29 28 27
20 31 32 35 29 28 28 29 26 32 36 35 42 46 54 41 41 41 44 49 49 46 45 45 46 46 43 38 37 35 34 36 37 37 38 36 33 26 27 27 27 27 28 28
25 26 24 31 31 32 36 34 33 32 34 37 46 49 53 51 48 47 46 44 46 46 45 46 47 47 44 41 40 34 32 30 30 35 36 35 32 29 26 24 24 25 26 25
24 26 25 33 29 31 42 41 38 40 40 39 45 55 45 52 46 44 46 43 45 45 45 44 45 46 45 42 38 34 30 26 26 29 28 30 30 26 25 23 24 24 24 24
23 27 28 32 24 34 29 24 28 31 36 36 46 51 50 47 44 44 42 41 40 41 44 44 44 44 41 40 36 30 27 25 25 27 26 27 26 25 24 23 23 22 22 22
20 21 25 30 32 34 34 29 25 26 31 30 39 43 45 41 35 32 25 34 38 41 42 44 43 43 40 38 34 31 27 25 20 21 23 24 23 21 20 20 19 19 19 20
21 23 28 27 33 37 29 25 24 22 39 24 24 26 27 27 31 31 35 38 39 39 40 40 40 39 37 35 32 30 31 27 26 21 18 17 17 17 16 16 17 17 17 18
20 24 30 32 36 38 31 24 21 30 33 21 24 27 29 30 31 39 40 39 38 39 39 38 36 35 35 34 33 31 30 33 28 24 21 18 17 16 17 17 18 17 17 18
22 25 29 30 35 44 23 24 30 26 24 25 27 28 32 34 38 39 41 41 40 41 40 38 37 35 33 32 33 32 30 29 29 27 27 24 22 22 21 21 22 20 20 21
25 21 23 23 31 25 20 23 20 22 25 27 28 30 34 38 40 41 42 42 41 40 39 38 37 36 33 32 32 33 31 29 28 28 27 27 24 24 24 25 26 26 26 27
23 19 22 22 25 25 22 21 22 24 26 28 31 34 36 39 40 41 40 41 41 40 40 39 38 37 36 34 33 32 31 29 28 28 27 27 26 24 25 25 25 26 28 29
23 15 22 27 26 22 23 23 24 26 27 29 32 34 36 38 40 41 42 41 40 41 40 39 39 39 37 34 33 32 31 30 28 27 26 24 22 23 24 25 26 26 26 27
22 22 24 29 22 25 25 22 24 27 30 31 34 36 35 36 39 39 41 41 41 41 40 40 39 39 38 36 35 33 33 32 30 28 24 23 21 20 20 21 22 23 23 24
Wind_Direction
252 256 254 259 260 268 271 275 274 279 284 282 279 278 279 277 276 275 274 272 273 277 283 278 273 268 265 264 262 257 253 251 252 251 252 255 256 259 261 259 258 254 246 236
256 254 259 262 262 266 267 270 272 279 284 285 283 278 282 282 275 277 272 273 274 277 281 283 279 269 264 260 257 256 252 251 247 253 253 257 259 262 262 263 256 248 241 244
252 265 259 259 261 262 265 269 274 276 284 286 288 275 282 285 282 278 275 275 275 275 277 281 280 274 264 260 258 256 253 249 247 249 256 259 265 265 263 258 260 255 253 252
259 258 257 256 260 263 265 271 273 275 279 276 288 275 280 287 286 284 282 277 277 277 278 280 281 277 270 259 258 258 257 254 252 249 252 250 253 260 258 260 262 261 252 249
257 257 253 257 261 264 268 274 278 275 275 280 277 280 277 291 289 291 292 282 276 273 280 282 281 280 276 265 258 257 256 256 253 251 248 251 254 258 266 264 262 259 259 253
256 269 260 257 263 262 275 270 274 279 279 273 275 276 274 288 290 294 295 289 280 279 282 284 283 282 279 273 259 256 256 254 249 247 247 253 256 255 260 260 261 262 261 259
256 255 267 265 257 260 261 268 268 268 268 271 282 273 276 296 300 301 302 294 290 287 285 287 286 285 282 274 264 260 256 253 250 248 249 245 247 253 251 254 256 259 260 259
251 257 250 255 256 263 256 257 262 268 269 273 279 274 282 297 306 307 307 300 295 290 289 287 286 285 283 282 273 265 259 253 250 251 252 253 252 254 254 255 257 258 259 261
254 259 273 260 257 253 263 259 267 270 274 275 275 279 285 290 292 300 312 312 310 302 293 295 294 288 284 283 283 273 261 256 254 255 259 258 255 255 255 254 256 261 260 262
264 263 267 261 255 256 258 267 262 266 269 270 275 278 278 288 295 299 304 320 321 309 306 304 307 299 289 287 287 279 267 260 260 260 260 261 258 257 257 258 257 256 261 262
258 262 268 260 256 255 256 259 264 269 268 270 274 276 286 286 295 304 300 315 313 304 304 313 315 315 305 293 291 285 270 266 264 263 264 264 261 257 257 257 258 259 261 262
245 266 260 260 273 263 254 256 250 260 266 267 274 272 284 288 291 298 302 305 310 302 294 299 303 310 312 305 293 289 279 267 265 265 266 266 263 259 256 256 258 260 260 261
240 256 260 265 270 264 255 253 252 259 271 265 268 272 282 285 289 299 300 299 299 299 293 293 295 302 309 309 303 288 281 269 265 264 265 266 265 261 257 256 257 260 261 261
241 255 253 255 266 269 257 254 252 252 260 265 266 269 275 279 285 286 288 294 300 303 300 292 290 292 299 304 307 300 281 271 267 264 265 265 266 264 262 260 260 261 262 262
248 258 256 258 266 266 267 264 258 256 261 267 269 270 270 280 286 288 292 296 296 299 298 294 289 289 293 296 300 299 291 276 269 267 266 268 269 268 265 263 262 263 264 264
250 264 264 264 262 264 264 264 264 264 266 270 271 274 263 274 282 286 295 299 299 299 300 297 290 285 287 291 294 298 297 292 283 271 269 268 269 270 268 267 266 266 267 266
247 256 262 265 270 268 264 259 262 265 265 268 271 259 280 272 284 291 293 297 299 298 299 298 295 287 284 287 293 296 299 300 291 280 275 271 268 269 269 268 268 269 269 270
252 255 260 265 269 264 273 276 267 265 269 270 270 265 268 278 290 290 295 294 299 301 299 297 295 293 289 285 290 296 296 299 296 286 281 274 269 268 269 269 268 270 272 272
257 254 262 261 261 273 272 273 275 272 275 278 273 274 278 287 292 294 311 308 305 304 302 299 293 293 292 290 290 290 292 293 300 293 284 277 273 271 270 269 272 275 276 277
260 259 256 265 265 266 278 282 281 283 273 286 287 293 298 301 290 294 308 307 307 309 310 309 302 298 298 299 295 291 286 287 290 291 286 280 276 272 271 273 277 281 283 284
253 258 255 261 267 272 273 279 289 273 280 290 291 293 295 296 297 294 302 307 308 311 313 317 316 310 303 302 299 294 290 283 284 285 284 280 275 272 273 278 282 283 286 289
254 258 263 265 267 266 279 281 273 284 291 293 294 295 296 298 298 300 303 304 308 310 313 315 317 314 310 307 301 295 295 292 284 282 278 279 277 273 275 276 280 282 285 289
262 265 270 265 273 285 288 287 293 291 291 293 297 301 302 299 299 301 303 304 306 307 309 312 311 310 311 309 308 300 298 296 289 283 281 280 281 281 278 277 279 281 284 287
269 270 276 280 281 282 285 292 293 295 296 299 301 301 302 300 301 301 306 307 306 307 307 307 308 308 307 309 307 304 304 300 294 287 284 281 280 282 283 283 282 282 283 287
272 267 271 278 284 291 287 289 292 296 300 301 302 303 304 304 302 302 303 306 307 307 307 307 305 304 305 310 309 308 306 304 299 292 287 285 285 282 283 285 287 289 292 292
268 274 273 279 290 287 291 294 298 298 299 304 304 303 306 307 306 307 304 305 306 307 307 306 305 303 303 305 306 307 305 302 298 295 292 288 286 287 288 290 295 301 298 299